GFSFLT2_con_3kmhel_228.txt.gz
Helicity
61 48 61 47 49 44 47 46 54 59 61 55 57 61 58 56 56 56 49 44 41 54 56 52 51 31 8 -16 38 109 92 77
103 95 94 86 67 54 51 50 41 39 51 47 51 49 48 53 55 52 49 54 58 55 45 37 36 44 26 -3 -20 84 85 78
70 95 136 148 107 80 78 67 62 54 54 56 65 52 49 47 50 53 53 51 44 34 26 32 33 19 19 3 -5 78 90 94
66 78 86 128 135 127 105 81 70 61 58 66 60 52 53 47 49 47 56 67 59 50 39 38 29 25 25 6 -11 85 108 135
23 41 60 78 111 120 119 92 75 62 66 72 61 59 57 55 56 47 43 59 79 83 63 67 58 41 27 25 11 56 102 142
51 21 23 41 93 104 93 105 91 88 95 77 74 65 57 66 74 64 66 64 58 83 83 80 98 87 68 50 34 66 115 138
79 45 33 14 55 83 88 103 113 102 93 80 88 80 75 90 98 111 126 121 103 107 128 144 133 121 90 80 57 66 129 176
123 100 26 -14 21 86 80 97 101 96 99 93 86 78 55 92 122 132 142 163 147 146 148 145 148 147 118 108 93 72 129 180
125 124 69 30 -6 -15 97 103 110 104 73 73 103 117 108 104 119 143 155 175 165 149 132 128 136 141 113 136 125 98 136 196
148 168 133 81 63 90 110 129 107 90 73 78 62 90 122 175 179 167 177 200 198 175 166 164 169 166 156 136 159 162 167 220
289 203 168 144 121 113 125 119 107 86 79 83 84 68 98 125 138 144 180 193 196 193 175 189 180 188 178 184 200 193 218 261
328 288 225 174 141 146 131 113 86 79 71 56 48 59 72 71 71 94 95 120 124 145 155 159 168 152 163 172 231 230 240 321
382 353 269 174 159 140 138 133 115 111 102 86 71 60 57 64 73 75 82 107 111 102 133 124 110 177 174 212 183 234 269 316
412 314 249 226 197 164 126 99 75 52 53 59 74 79 93 99 108 128 127 114 100 94 87 104 117 135 184 165 191 211 361 285
451 368 291 227 175 124 109 88 83 83 75 67 88 93 104 125 134 121 120 110 98 89 105 110 106 92 89 131 173 227 216 229
380 293 246 223 187 135 95 72 70 63 91 114 131 157 141 118 107 86 78 79 94 80 62 79 89 119 80 97 109 140 101 155
348 306 270 187 129 81 63 68 49 50 73 116 152 172 166 154 145 124 87 70 65 52 37 38 46 66 57 43 58 53 105 237
333 283 218 162 113 69 67 62 63 83 103 139 177 187 185 185 162 161 162 127 92 73 66 68 62 46 33 40 69 111 135 86
327 247 178 100 77 99 101 76 74 69 122 148 150 161 143 119 53 59 58 36 15 20 43 57 87 113 76 57 81 98 114 130
222 158 84 83 94 68 58 53 77 133 135 149 146 100 67 24 33 20 36 38 42 43 22 46 76 55 109 66 78 107 112 116

GFSFLT2_con_3kmhel_231.txt.gz
Helicity
71 40 44 49 48 62 67 52 54 51 44 45 43 37 35 29 25 22 26 34 37 29 27 19 13 9 11 69 89 95 84 67
76 62 61 65 53 54 63 56 55 62 56 52 45 36 33 28 30 26 26 28 35 44 37 27 17 1 -2 16 72 79 77 71
58 72 82 81 76 79 87 86 67 62 59 59 62 43 40 36 32 30 33 33 28 28 34 31 26 21 10 0 50 57 64 68
48 73 88 94 91 93 102 109 103 84 66 57 59 40 39 42 43 36 35 42 48 46 46 37 38 43 34 19 58 69 62 51
31 65 88 100 111 114 116 103 91 86 76 72 62 57 45 43 46 42 42 32 36 36 42 67 60 51 40 33 44 75 82 81
121 88 79 75 93 127 110 94 75 73 82 76 71 66 67 65 72 67 73 73 69 65 54 48 62 62 78 70 46 50 76 106
107 84 36 45 87 110 104 83 75 91 93 91 88 81 75 71 62 70 87 101 104 96 97 91 111 126 122 103 81 77 88 96
125 90 74 40 25 26 79 90 85 84 89 82 75 84 81 81 83 79 79 102 109 119 125 115 115 138 133 125 98 100 119 127
136 115 126 90 5 -2 41 69 60 67 73 70 70 87 96 114 107 120 124 141 137 149 140 139 125 122 122 146 129 119 128 154
155 141 134 118 109 73 63 79 93 94 79 75 59 62 93 87 97 104 120 122 136 151 160 157 146 139 130 141 148 151 150 176
212 188 165 180 184 133 114 105 89 80 67 59 59 84 72 80 81 74 82 83 119 121 122 160 150 145 153 141 157 177 184 201
246 285 287 261 199 177 162 134 120 113 108 105 108 93 87 84 90 90 95 99 99 110 108 128 144 153 129 87 123 149 163 195
320 362 336 301 268 214 195 176 172 162 118 92 86 85 104 128 148 163 166 170 160 148 143 156 159 132 131 91 68 123 130 175
420 407 385 349 268 248 217 192 172 120 99 90 82 92 107 124 147 167 183 188 192 178 148 133 127 116 139 161 144 96 50 41
413 396 411 393 289 220 190 151 123 98 80 57 72 91 113 143 180 201 201 176 183 158 137 164 189 162 127 159 208 208 90 44
411 419 436 400 326 265 187 120 102 66 44 42 71 112 151 168 171 181 175 154 171 138 120 107 111 138 105 117 166 151 203 130
437 436 439 362 294 202 144 123 88 57 55 81 95 98 139 195 197 205 216 206 176 138 101 85 63 65 69 64 81 140 180 217
434 427 413 309 225 152 102 77 56 65 77 91 79 73 84 160 174 175 173 183 168 137 96 64 56 67 69 45 15 7 31 127
423 402 369 235 155 130 116 75 43 26 10 2 20 61 122 128 129 103 55 59 92 84 102 115 94 82 90 120 105 71 54 111
404 372 290 189 149 125 79 29 5 -7 8 56 98 120 93 78 56 57 48 30 22 11 33 58 69 63 66 75 100 98 48 51

GFSFLT2_con_3kmhel_234.txt.gz
Helicity
82 59 65 59 51 72 78 84 82 79 74 72 61 51 41 33 29 30 32 34 35 37 40 41 47 53 94 77 65 43 28 19
69 79 85 70 61 85 101 111 105 97 79 73 65 54 49 42 34 29 28 31 35 34 38 40 38 30 54 76 70 64 64 53
58 76 78 77 76 79 92 90 86 87 82 71 64 57 50 50 48 36 33 33 37 42 41 34 23 18 23 62 57 58 51 51
55 67 93 89 78 82 83 89 85 79 71 61 65 59 45 48 42 36 30 30 28 28 34 37 41 46 44 58 69 65 65 59
66 101 109 93 100 106 112 114 97 85 72 72 66 62 54 57 56 46 46 43 55 48 38 44 50 65 69 66 57 64 76 68
117 108 107 88 94 97 92 106 114 89 67 59 64 63 63 60 53 52 55 64 67 67 70 62 53 63 77 85 85 81 90 98
133 142 136 112 100 87 94 107 105 85 73 63 76 71 60 62 60 65 67 70 75 86 94 99 102 100 99 107 107 110 106 106
173 168 145 116 85 67 72 94 98 83 72 57 70 77 65 54 59 63 73 80 87 100 119 125 122 130 122 128 121 123 121 128
176 175 146 115 75 24 20 73 78 66 64 70 71 67 71 70 64 59 64 73 77 99 99 111 116 123 121 125 141 133 127 133
148 151 162 152 90 41 58 87 79 87 87 77 79 76 57 63 67 77 61 56 64 80 92 121 117 113 119 123 136 131 126 145
188 184 188 189 183 149 141 143 141 146 163 159 153 140 135 113 104 98 93 91 114 150 168 157 158 150 145 156 143 159 146 162
204 238 224 249 263 246 245 223 194 176 169 173 156 130 119 98 99 113 110 99 101 107 110 140 134 149 149 157 140 124 128 133
298 326 295 258 264 266 255 213 184 186 134 93 71 57 59 56 55 68 65 75 87 125 147 185 195 176 144 157 143 116 135 105
359 401 352 328 308 307 250 206 179 145 104 98 77 63 54 43 56 72 93 130 197 217 195 175 144 137 93 78 81 70 88 188
440 452 430 390 334 333 291 233 201 175 151 119 87 63 64 75 84 98 131 167 197 220 222 224 192 157 160 131 158 159 128 61
504 484 462 404 354 355 292 213 179 141 92 49 49 52 53 81 99 115 147 160 204 200 192 177 185 163 167 166 197 208 188 71
488 515 484 415 361 300 257 221 148 99 84 96 72 46 58 79 106 129 146 145 135 147 175 180 148 128 113 119 102 145 170 248
497 505 482 407 359 301 224 153 101 98 83 66 34 21 33 60 70 70 79 101 109 106 95 78 68 95 110 112 131 105 109 133
517 478 439 372 327 253 170 125 86 61 22 -4 10 21 2 5 68 77 91 88 67 57 45 25 26 55 89 136 148 138 150 192
470 443 405 329 286 233 153 96 54 11 -7 15 -6 -3 56 118 127 120 108 110 106 103 103 84 70 88 95 108 126 129 134 158

GFSFLT2_con_3kmhel_237.txt.gz
Helicity
72 78 84 87 86 88 95 94 96 98 90 84 63 51 46 42 42 46 51 56 59 55 53 65 86 88 64 51 42 34 15 15
57 70 85 88 92 93 93 95 86 88 86 78 71 65 55 48 44 45 45 46 51 52 48 47 52 66 78 73 57 39 30 27
75 65 68 75 95 102 97 89 83 84 83 76 73 51 49 50 51 45 38 35 34 39 41 33 36 50 63 59 61 48 39 41
63 77 81 76 73 69 75 75 81 84 80 77 71 61 54 56 47 38 31 36 36 35 34 36 38 45 62 60 48 46 50 54
69 94 99 98 79 80 71 80 106 99 78 70 70 62 52 49 49 46 43 41 40 46 47 49 53 58 64 73 67 55 55 59
90 114 108 106 94 93 75 71 79 93 92 71 63 49 46 58 70 64 61 62 62 56 61 60 58 61 61 59 61 63 63 60
111 133 130 102 92 82 84 70 82 96 85 80 70 70 71 72 71 69 65 64 53 55 55 60 67 70 69 70 75 70 71 79
145 118 112 115 91 84 78 86 107 107 118 100 70 75 76 72 66 70 68 66 66 59 58 65 74 81 81 81 78 62 65 79
158 142 126 102 100 101 93 94 110 110 109 102 74 65 62 58 63 70 73 70 62 54 66 66 73 86 69 76 85 93 91 83
139 144 138 119 126 127 101 114 133 139 124 121 130 112 92 90 92 86 70 72 67 67 68 71 79 94 91 111 114 126 129 123
115 114 153 163 182 198 197 180 188 172 166 152 155 152 126 100 82 69 60 57 62 66 82 94 108 127 127 130 132 127 97 108
130 137 181 217 234 255 254 269 247 217 208 169 148 127 114 91 75 65 58 64 79 95 103 113 129 152 147 167 157 144 103 93
192 204 237 275 292 346 286 259 230 225 192 163 131 102 88 68 54 56 50 65 76 90 101 129 139 142 102 144 106 81 154 129
198 269 260 295 249 280 286 276 232 202 156 122 79 47 31 35 34 35 50 58 93 134 160 165 171 201 186 157 162 153 148 184
247 324 340 328 322 346 369 342 258 184 141 113 87 56 52 47 52 50 68 103 143 172 190 195 190 160 171 130 140 185 131 50
317 391 420 387 339 339 325 279 234 181 142 107 79 52 47 51 54 71 88 103 131 155 166 155 133 139 109 84 72 83 90 48
403 462 444 399 382 363 354 316 259 193 151 113 76 59 66 71 72 71 78 87 105 119 119 115 115 118 91 89 89 90 98 104
463 489 504 475 405 348 322 284 232 176 109 81 75 65 49 49 59 70 79 95 113 118 96 85 75 59 62 42 61 98 102 110
517 548 540 457 412 381 320 234 159 116 99 98 82 73 48 92 100 88 109 138 139 136 126 108 105 104 100 103 103 102 98 100
550 527 505 430 383 353 283 208 157 149 118 88 72 59 94 91 93 126 155 154 145 146 134 119 112 119 115 123 140 142 146 140

GFSFLT2_con_3kmhel_243.txt.gz
Helicity
87 79 68 57 39 39 52 49 44 56 67 69 63 56 54 52 51 54 58 63 67 65 59 56 52 51 48 34 25 18 14 13
69 72 63 64 38 23 45 47 48 50 73 80 73 65 55 46 44 54 61 67 70 70 69 62 54 51 52 49 35 19 14 8
72 59 56 43 44 47 50 57 74 84 78 60 49 23 51 80 96 91 66 62 63 64 62 58 58 51 45 55 67 29 36 31
71 65 62 54 39 72 51 56 43 46 48 64 18 53 66 93 121 91 68 61 52 53 53 49 36 7 90 24 17 48 41 41
65 65 81 67 34 85 69 85 68 40 46 67 53 95 77 68 80 71 62 58 52 59 56 38 27 31 73 71 39 26 15 43
76 75 119 84 125 107 102 93 74 49 58 86 128 79 93 53 70 114 49 81 40 35 55 53 44 43 47 43 68 81 62 50
90 115 139 145 170 99 68 87 93 51 89 94 89 70 90 91 100 64 73 56 77 89 87 77 44 33 35 42 36 39 45 67
106 107 116 152 110 129 98 80 86 70 89 108 81 101 98 78 89 75 79 68 88 53 36 33 30 49 37 26 36 45 52 70
124 109 121 127 128 148 100 91 76 83 126 178 84 79 91 62 81 94 79 51 29 23 20 21 16 25 32 47 59 66 70 94
124 111 117 119 108 101 94 111 108 116 137 86 74 91 92 91 68 57 34 14 18 26 26 31 35 47 53 66 89 96 123 134
127 100 109 113 98 98 114 159 141 150 136 138 116 93 73 47 41 57 32 41 37 40 47 51 53 54 78 100 91 111 128 121
135 119 101 124 196 145 169 167 170 169 161 147 113 113 95 64 63 51 38 47 54 74 65 65 52 70 89 82 94 96 101 120
155 129 145 213 225 215 203 171 178 165 154 119 117 93 84 67 64 54 59 85 97 76 54 61 61 137 76 123 104 66 145 149
144 118 222 252 250 181 159 175 163 180 171 147 138 98 92 91 93 78 82 83 80 85 76 69 79 138 133 108 152 100 265 275
141 155 259 264 266 244 228 266 245 207 170 154 127 113 113 104 98 120 94 96 110 85 84 96 101 129 171 113 125 181 180 153
200 229 222 182 196 279 314 278 227 165 144 161 154 127 115 120 114 102 100 95 91 78 117 99 113 124 149 173 192 166 183 184
154 195 228 219 217 249 274 194 182 219 186 199 187 163 128 103 95 88 89 85 102 91 91 107 134 152 154 156 163 157 147 148
184 176 262 289 255 263 197 212 305 245 223 204 195 159 138 127 109 98 99 98 92 78 102 120 131 130 127 129 146 156 135 128
223 190 359 364 306 276 221 272 308 229 211 203 197 168 154 143 109 97 81 98 85 88 121 132 111 126 132 127 116 102 112 125
230 265 368 325 357 371 423 391 318 268 194 244 196 188 165 159 107 103 106 96 91 121 133 108 120 125 118 107 103 100 99 107

GFSFLT2_con_3kmhel_246.txt.gz
Helicity
125 82 59 43 42 44 25 35 42 42 36 33 46 49 48 52 53 57 63 66 65 55 50 44 42 39 41 41 33 23 26 52
118 87 77 50 49 49 51 46 51 48 42 42 41 45 44 39 47 53 57 59 59 50 42 39 40 38 27 28 39 33 40 34
99 94 80 74 71 64 76 77 73 64 50 33 39 25 35 61 41 95 63 55 54 46 41 33 31 19 14 14 20 44 47 47
89 98 96 79 70 117 89 84 75 60 56 59 17 -26 47 73 91 87 79 60 47 36 32 32 28 44 71 40 44 37 8 15
94 101 88 87 52 153 115 95 73 50 42 79 47 11 97 129 108 91 65 42 55 35 13 25 33 43 53 55 54 32 18 2
110 107 88 81 82 173 106 108 75 61 33 82 55 81 100 64 91 105 46 46 29 80 57 35 18 31 12 14 33 62 51 54
106 74 118 85 70 159 169 139 128 65 15 127 113 81 73 56 80 95 82 79 61 73 76 58 45 36 25 14 11 15 17 37
141 89 174 133 177 182 160 122 139 75 46 121 106 109 100 88 65 104 86 70 92 55 56 42 29 20 27 29 25 45 58 58
184 146 149 136 192 158 148 156 146 70 86 171 141 150 63 59 101 91 85 77 74 41 36 15 32 45 49 52 71 74 97 106
203 153 140 120 145 217 173 121 113 75 166 231 207 128 62 110 111 96 61 42 30 50 53 45 41 63 61 70 74 87 97 114
280 216 173 119 108 208 120 87 73 231 246 203 147 112 104 106 92 66 39 63 78 87 90 89 76 75 75 78 71 94 109 120
359 281 189 133 119 146 132 205 206 224 206 192 169 145 114 109 145 87 58 89 124 99 88 80 69 81 100 76 90 76 113 137
373 311 222 173 132 221 234 259 230 201 182 194 152 147 131 131 110 97 125 134 123 102 93 90 64 87 80 90 91 111 222 288
326 348 280 214 220 224 265 247 216 209 208 154 178 165 145 158 147 130 169 105 126 101 78 76 88 124 89 80 111 107 189 163
352 452 381 355 261 259 239 233 205 227 232 218 224 203 178 188 203 174 155 153 123 95 94 108 80 87 136 108 142 187 160 141
380 457 440 413 312 259 269 304 291 309 276 241 229 210 225 211 188 162 153 167 156 125 124 87 97 89 129 187 214 198 156 183
423 475 490 449 376 302 337 363 332 331 260 306 266 241 240 193 179 162 156 159 137 126 118 110 105 121 159 160 175 173 166 187
455 519 508 433 330 359 357 321 362 363 367 381 306 273 232 223 189 172 162 149 145 130 123 102 123 137 139 163 176 172 167 169
608 550 488 333 286 372 345 314 289 333 440 343 315 274 274 254 223 189 131 162 149 132 120 112 110 125 168 172 157 156 147 135
628 525 419 341 353 358 312 289 351 444 374 295 284 283 272 252 233 201 193 167 149 124 105 112 135 176 177 159 156 125 110 117